DIWATA-2B

Last updated on Mon Sep 07 2026 00:03:13 GMT+0000 (Coordinated Universal Time)

1 43678U 18084H 26249.58780002 .00000900 00000+0 76220-4 0 9991 2 43678 98.1193 89.3803 0010961 256.5079 103.4922 15.00704787428423
UTC large
Height (km)
Speed (km/s)
/
Latitude / Longitude
Inclination (degrees)
Orbital Period (minutes)
Azimuth
Elevation
Range (km)
Doppler Factor

Next 0 passes for location: London (51.5072 / 0.1276)

No passes found over London.
DIWATA-2B